timestamp,wind_dir_avg,wind_spd_avg,wind_spd_max_dir,wind_spd_gust,battery_voltage,lat,long
2022-10-25 00:04:00+00:00,137.0,0.72,141.0,0.93,12.49,47.59359,-54.27349
2022-10-25 00:14:00+00:00,32.0,0.5,32.0,0.58,12.41,47.59359,-54.27349
2022-10-25 00:24:00+00:00,115.0,1.19,113.0,1.5,12.41,47.59359,-54.27349
2022-10-25 00:34:00+00:00,19.0,0.97,26.0,1.2,12.41,47.59359,-54.27349
2022-10-25 00:44:00+00:00,4.0,1.19,8.0,1.56,12.41,47.59359,-54.27349
2022-10-25 00:54:00+00:00,30.0,0.6,13.0,1.06,12.41,47.59359,-54.27349
2022-10-25 01:04:00+00:00,343.0,0.79,342.0,0.9,12.41,47.59359,-54.27349
2022-10-25 01:14:00+00:00,304.0,0.38,310.0,0.51,12.41,47.59359,-54.27349
2022-10-25 01:24:00+00:00,69.0,0.22,91.0,0.65,12.41,47.59359,-54.27349
2022-10-25 01:34:00+00:00,171.0,0.21,161.0,0.42,12.41,47.59359,-54.27349
2022-10-25 01:44:00+00:00,236.0,1.86,251.0,2.34,12.41,47.59359,-54.27349
2022-10-25 01:54:00+00:00,252.0,2.17,257.0,2.51,12.41,47.59359,-54.27349
2022-10-25 02:04:00+00:00,251.0,1.14,250.0,1.54,12.41,47.59359,-54.27349
2022-10-25 02:14:01+00:00,245.0,2.26,244.0,2.55,12.41,47.59359,-54.27349
2022-10-25 02:24:01+00:00,246.0,2.19,252.0,2.54,12.41,47.59359,-54.27349
2022-10-25 02:34:01+00:00,266.0,3.51,264.0,3.89,12.41,47.59359,-54.27349
2022-10-25 02:44:01+00:00,289.0,2.56,285.0,2.95,12.41,47.59359,-54.27349
2022-10-25 02:54:01+00:00,300.0,2.05,303.0,2.31,12.41,47.59359,-54.27349
2022-10-25 03:04:01+00:00,284.0,2.55,285.0,2.83,12.41,47.59359,-54.27349
2022-10-25 03:14:00+00:00,287.0,2.59,289.0,2.81,12.33,47.59359,-54.27349
2022-10-25 03:24:00+00:00,297.0,0.97,303.0,1.28,12.33,47.59359,-54.27349
2022-10-25 03:34:00+00:00,343.0,1.44,342.0,1.68,12.33,47.59359,-54.27349
2022-10-25 03:44:00+00:00,305.0,1.19,309.0,1.44,12.33,47.59359,-54.27349
2022-10-25 03:54:00+00:00,301.0,1.43,304.0,1.7,12.33,47.59359,-54.27349
2022-10-25 04:04:00+00:00,305.0,1.6,312.0,1.87,12.33,47.59359,-54.27349
2022-10-25 04:14:00+00:00,314.0,1.84,315.0,2.1,12.33,47.59359,-54.27349
2022-10-25 04:24:00+00:00,304.0,1.36,305.0,1.66,12.33,47.59359,-54.27349
2022-10-25 04:34:00+00:00,315.0,1.36,311.0,1.59,12.33,47.59359,-54.27349
2022-10-25 04:44:00+00:00,313.0,1.74,308.0,2.09,12.33,47.59359,-54.27349
2022-10-25 04:54:00+00:00,303.0,1.73,307.0,1.96,12.33,47.59359,-54.27349
2022-10-25 05:04:00+00:00,304.0,1.63,304.0,1.89,12.33,47.59359,-54.27349
2022-10-25 05:14:01+00:00,269.0,1.52,274.0,1.73,12.41,47.59359,-54.27349
2022-10-25 05:24:01+00:00,273.0,1.38,273.0,1.69,12.41,47.59359,-54.27349
2022-10-25 05:34:01+00:00,267.0,2.0,263.0,2.31,12.41,47.59359,-54.27349
2022-10-25 05:44:01+00:00,244.0,3.45,241.0,3.77,12.41,47.59359,-54.27349
2022-10-25 05:54:01+00:00,245.0,3.17,246.0,3.65,12.41,47.59359,-54.27349
2022-10-25 06:04:01+00:00,241.0,3.47,241.0,3.82,12.41,47.59359,-54.27349
2022-10-25 06:14:01+00:00,250.0,3.21,249.0,3.53,12.33,47.59359,-54.27349
2022-10-25 06:24:01+00:00,252.0,4.35,253.0,4.68,12.33,47.59359,-54.27349
2022-10-25 06:34:01+00:00,241.0,3.98,239.0,4.37,12.33,47.59359,-54.27349
2022-10-25 06:44:01+00:00,248.0,4.36,247.0,4.69,12.33,47.59359,-54.27349
2022-10-25 06:54:01+00:00,245.0,4.0,244.0,4.37,12.33,47.59359,-54.27349
2022-10-25 07:04:01+00:00,247.0,3.51,250.0,3.88,12.33,47.59359,-54.27349
2022-10-25 07:14:00+00:00,262.0,2.77,261.0,3.02,12.33,47.59359,-54.27349
2022-10-25 07:24:00+00:00,252.0,2.81,252.0,3.02,12.33,47.59359,-54.27349
2022-10-25 07:34:00+00:00,249.0,2.75,251.0,3.09,12.33,47.59359,-54.27349
2022-10-25 07:44:00+00:00,258.0,2.85,253.0,3.09,12.33,47.59359,-54.27349
2022-10-25 07:54:00+00:00,258.0,2.53,255.0,2.76,12.33,47.59359,-54.27349
2022-10-25 08:04:00+00:00,278.0,1.97,284.0,2.21,12.33,47.59359,-54.27349
2022-10-25 08:14:01+00:00,282.0,2.28,284.0,2.56,12.25,47.59359,-54.27349
2022-10-25 08:24:01+00:00,284.0,2.24,290.0,2.45,12.25,47.59359,-54.27349
2022-10-25 08:34:01+00:00,292.0,2.43,298.0,2.7,12.25,47.59359,-54.27349
2022-10-25 08:44:01+00:00,284.0,2.2,278.0,2.54,12.25,47.59359,-54.27349
2022-10-25 08:54:01+00:00,275.0,1.94,272.0,2.23,12.25,47.59359,-54.27349
2022-10-25 09:04:01+00:00,280.0,2.02,288.0,2.45,12.25,47.59359,-54.27349
2022-10-25 09:14:00+00:00,262.0,2.1,255.0,2.38,12.25,47.59359,-54.27349
2022-10-25 09:24:00+00:00,269.0,2.37,263.0,2.7,12.25,47.59359,-54.27349
2022-10-25 09:34:00+00:00,254.0,2.55,252.0,2.74,12.25,47.59359,-54.27349
2022-10-25 09:44:00+00:00,240.0,2.82,235.0,3.17,12.25,47.59359,-54.27349
2022-10-25 09:54:00+00:00,230.0,3.05,225.0,3.3,12.25,47.59359,-54.27349
2022-10-25 10:04:00+00:00,234.0,2.73,237.0,3.37,12.25,47.59359,-54.27349
2022-10-25 10:14:01+00:00,236.0,3.25,239.0,3.53,12.25,47.59359,-54.27349
2022-10-25 10:24:01+00:00,230.0,3.31,224.0,3.93,12.25,47.59359,-54.27349
2022-10-25 10:34:01+00:00,228.0,3.63,226.0,4.17,12.25,47.59359,-54.27349
2022-10-25 10:44:01+00:00,220.0,4.64,221.0,5.09,12.25,47.59359,-54.27349
2022-10-25 10:54:01+00:00,227.0,4.72,223.0,5.48,12.25,47.59359,-54.27349
2022-10-25 11:04:01+00:00,230.0,4.48,228.0,4.95,12.25,47.59359,-54.27349
2022-10-25 11:14:00+00:00,228.0,3.71,231.0,4.23,12.33,47.59359,-54.27349
2022-10-25 11:24:00+00:00,238.0,3.04,236.0,3.45,12.33,47.59359,-54.27349
2022-10-25 11:34:00+00:00,242.0,3.3,246.0,3.91,12.33,47.59359,-54.27349
2022-10-25 11:44:00+00:00,240.0,4.04,237.0,4.29,12.33,47.59359,-54.27349
2022-10-25 11:54:00+00:00,253.0,3.29,258.0,4.19,12.33,47.59359,-54.27349
2022-10-25 12:04:00+00:00,240.0,3.44,237.0,3.68,12.33,47.59359,-54.27349
2022-10-25 12:14:00+00:00,238.0,3.26,236.0,3.53,14.32,47.59359,-54.27349
2022-10-25 12:24:00+00:00,239.0,2.49,233.0,2.9,14.32,47.59359,-54.27349
2022-10-25 12:34:00+00:00,234.0,2.31,235.0,2.46,14.32,47.59359,-54.27349
2022-10-25 12:44:00+00:00,216.0,2.9,213.0,3.28,14.32,47.59359,-54.27349
2022-10-25 12:54:00+00:00,224.0,2.92,221.0,3.14,14.32,47.59359,-54.27349
2022-10-25 13:04:00+00:00,219.0,2.7,221.0,2.9,14.32,47.59359,-54.27349
2022-10-25 13:14:00+00:00,222.0,2.53,225.0,2.82,14.32,47.59359,-54.27349
2022-10-25 13:24:00+00:00,216.0,3.37,219.0,3.55,14.32,47.59359,-54.27349
2022-10-25 13:34:00+00:00,209.0,2.89,203.0,3.45,14.32,47.59359,-54.27349
2022-10-25 13:44:00+00:00,209.0,3.63,207.0,3.96,14.32,47.59359,-54.27349
2022-10-25 13:54:00+00:00,211.0,4.01,215.0,4.56,14.32,47.59359,-54.27349
2022-10-25 14:04:00+00:00,208.0,5.61,208.0,6.16,14.32,47.59359,-54.27349
2022-10-25 14:14:00+00:00,203.0,6.02,205.0,6.85,14.48,47.59359,-54.27349
2022-10-25 14:24:00+00:00,204.0,6.35,206.0,6.94,14.48,47.59359,-54.27349
2022-10-25 14:34:00+00:00,202.0,6.94,202.0,7.62,14.48,47.59359,-54.27349
2022-10-25 14:44:00+00:00,195.0,6.24,199.0,7.12,14.48,47.59359,-54.27349
2022-10-25 14:54:00+00:00,197.0,7.16,199.0,7.66,14.48,47.59359,-54.27349
2022-10-25 15:04:00+00:00,205.0,5.66,205.0,6.3,14.48,47.59359,-54.27349
2022-10-25 15:14:01+00:00,207.0,6.57,207.0,7.17,13.68,47.59359,-54.27349
2022-10-25 15:24:01+00:00,203.0,5.97,203.0,6.67,13.68,47.59359,-54.27349
2022-10-25 15:34:01+00:00,209.0,5.03,211.0,6.12,13.68,47.59359,-54.27349
2022-10-25 15:44:01+00:00,213.0,5.12,216.0,6.07,13.68,47.59359,-54.27349
2022-10-25 15:54:01+00:00,217.0,5.96,216.0,6.56,13.68,47.59359,-54.27349
2022-10-25 16:04:01+00:00,208.0,5.68,206.0,6.63,13.68,47.59359,-54.27349
2022-10-25 16:14:01+00:00,211.0,6.59,210.0,7.0,13.6,47.59359,-54.27349
2022-10-25 16:24:01+00:00,208.0,5.94,209.0,6.51,13.6,47.59359,-54.27349
2022-10-25 16:34:01+00:00,203.0,4.76,207.0,5.29,13.6,47.59359,-54.27349
2022-10-25 16:44:01+00:00,215.0,3.83,214.0,4.17,13.6,47.59359,-54.27349
2022-10-25 16:54:01+00:00,217.0,4.82,215.0,5.59,13.6,47.59359,-54.27349
2022-10-25 17:04:01+00:00,216.0,4.97,218.0,5.66,13.6,47.59359,-54.27349
2022-10-25 17:14:00+00:00,211.0,6.05,210.0,6.63,14.32,47.59359,-54.27349
2022-10-25 17:24:00+00:00,212.0,6.27,211.0,6.64,14.32,47.59359,-54.27349
2022-10-25 17:34:00+00:00,216.0,6.41,218.0,6.84,14.32,47.59359,-54.27349
2022-10-25 17:44:00+00:00,213.0,6.85,215.0,7.27,14.32,47.59359,-54.27349
2022-10-25 17:54:00+00:00,207.0,7.16,204.0,8.08,14.32,47.59359,-54.27349
2022-10-25 18:04:00+00:00,209.0,7.38,213.0,8.01,14.32,47.59359,-54.27349
2022-10-25 18:14:00+00:00,212.0,5.77,215.0,6.12,14.16,47.59359,-54.27349
2022-10-25 18:24:00+00:00,220.0,6.85,216.0,7.51,14.16,47.59359,-54.27349
2022-10-25 18:34:00+00:00,213.0,5.8,213.0,6.69,14.16,47.59359,-54.27349
2022-10-25 18:44:00+00:00,205.0,7.26,201.0,7.87,14.16,47.59359,-54.27349
2022-10-25 18:54:00+00:00,205.0,7.37,208.0,8.1,14.16,47.59359,-54.27349
2022-10-25 19:04:00+00:00,210.0,7.03,210.0,7.86,14.16,47.59359,-54.27349
2022-10-25 19:14:01+00:00,206.0,7.01,206.0,7.8,13.84,47.59359,-54.27349
2022-10-25 19:24:01+00:00,213.0,7.4,226.0,10.23,13.84,47.59359,-54.27349
2022-10-25 19:34:01+00:00,214.0,7.75,216.0,8.86,13.84,47.59359,-54.27349
2022-10-25 19:44:01+00:00,216.0,6.63,220.0,7.57,13.84,47.59359,-54.27349
2022-10-25 19:54:01+00:00,216.0,5.5,222.0,6.15,13.84,47.59359,-54.27349
2022-10-25 20:04:01+00:00,217.0,5.74,216.0,6.65,13.84,47.59359,-54.27349
2022-10-25 20:14:00+00:00,213.0,4.77,225.0,5.9,13.53,47.59359,-54.27349
2022-10-25 20:24:00+00:00,222.0,5.49,223.0,6.02,13.53,47.59359,-54.27349
2022-10-25 20:34:00+00:00,220.0,5.26,220.0,6.16,13.53,47.59359,-54.27349
2022-10-25 20:44:00+00:00,230.0,4.93,238.0,6.21,13.53,47.59359,-54.27349
2022-10-25 20:54:00+00:00,231.0,5.39,227.0,6.58,13.53,47.59359,-54.27349
2022-10-25 21:04:00+00:00,201.0,5.11,200.0,5.89,13.53,47.59359,-54.27349
2022-10-25 21:14:00+00:00,200.0,7.01,198.0,7.98,12.81,47.59359,-54.27349
2022-10-25 21:24:00+00:00,213.0,5.97,217.0,6.59,12.81,47.59359,-54.27349
2022-10-25 21:34:00+00:00,228.0,5.63,228.0,6.17,12.81,47.59359,-54.27349
2022-10-25 21:44:00+00:00,238.0,4.29,242.0,4.77,12.81,47.59359,-54.27349
2022-10-25 21:54:00+00:00,231.0,4.73,233.0,5.21,12.81,47.59359,-54.27349
2022-10-25 22:04:00+00:00,227.0,4.41,237.0,5.03,12.81,47.59359,-54.27349
2022-10-25 22:14:00+00:00,220.0,3.45,226.0,3.75,12.49,47.59359,-54.27349
2022-10-25 22:24:00+00:00,207.0,3.69,208.0,3.98,12.49,47.59359,-54.27349
2022-10-25 22:34:00+00:00,218.0,3.85,216.0,4.17,12.49,47.59359,-54.27349
2022-10-25 22:44:00+00:00,230.0,4.09,232.0,5.16,12.49,47.59359,-54.27349
2022-10-25 22:54:00+00:00,229.0,3.94,231.0,4.75,12.49,47.59359,-54.27349
2022-10-25 23:04:00+00:00,231.0,3.59,227.0,4.33,12.49,47.59359,-54.27349
2022-10-25 23:14:00+00:00,223.0,3.1,224.0,3.73,12.49,47.59359,-54.27349
2022-10-25 23:24:00+00:00,222.0,3.4,221.0,3.88,12.49,47.59359,-54.27349
2022-10-25 23:34:00+00:00,225.0,2.6,221.0,3.69,12.49,47.59359,-54.27349
2022-10-25 23:44:00+00:00,230.0,2.23,249.0,3.51,12.49,47.59359,-54.27349
2022-10-25 23:54:00+00:00,254.0,2.71,257.0,3.35,12.49,47.59359,-54.27349
